ZS6XK Weather Reports


Display with metric or nautical units.
time (UTC)temp
F
wind
direction
speed
MPH
gust
MPH
rain 1hr
in
rain 24hr
in
rain mn
in
humidity
%
barometer
mb
20260504151051 68 0 0.0 2.0 0.00 0.00 0.00 72 1022.6
20260504150552 68 0 0.0 2.0 0.00 0.00 0.00 72 1022.6
20260504141050 72 0 1.0 5.0 0.00 0.00 0.00 68 1022.8
20260504140552 72 67 0.0 3.0 0.00 0.00 0.00 67 1022.8
20260504130552 71 56 1.0 7.0 0.00 0.00 0.00 69 1022.8
20260504110554 71 45 2.0 5.0 0.00 0.00 0.00 70 1024.2
20260504100552 71 195 1.0 6.0 0.00 0.00 0.00 71 1025.3
20260504100106 71 11 2.0 6.0 0.00 0.00 0.00 71 1025.3
20260504081555 70 300 1.0 3.0 0.00 0.00 0.00 75 1026.6
20260504081051 69 330 0.0 3.0 0.00 0.00 0.00 75 1026.8
20260504080552 69 98 0.0 5.0 0.00 0.00 0.00 75 1026.7
20260504050552 54 0 0.0 0.0 0.00 0.00 0.00 93 1026.4
20260504045551 54 0 0.0 0.0 0.00 0.00 0.00 93 1026.3
20260504045051 54 0 0.0 0.0 0.00 0.00 0.00 93 1026.3
20260504044559 54 0 0.0 0.0 0.00 0.00 0.00 93 1026.2
20260504044052 54 0 0.0 0.0 0.00 0.00 0.00 93 1026.1
20260504043549 54 0 0.0 0.0 0.00 0.00 0.00 93 1026.1
20260504043101 54 0 0.0 0.0 0.00 0.00 0.00 93 1026.0
20260504042552 54 0 0.0 0.0 0.00 0.00 0.00 93 1026.0
20260504042055 54 0 0.0 0.0 0.00 0.00 0.00 93 1026.0
20260504041556 54 0 0.0 0.0 0.00 0.00 0.00 93 1026.0
20260504041054 54 0 0.0 0.0 0.00 0.00 0.00 93 1026.0
20260504040549 54 0 0.0 0.0 0.00 0.00 0.00 93 1026.0
20260504040104 54 0 0.0 0.0 0.00 0.00 0.00 93 1026.0
20260504035551 54 0 0.0 0.0 0.00 0.00 0.00 93 1026.0
20260504035053 54 0 0.0 0.0 0.00 0.00 0.00 93 1026.0
20260504034601 54 0 0.0 0.0 0.00 0.00 0.00 93 1026.0
20260504034052 54 0 0.0 0.0 0.00 0.00 0.00 93 1026.1
20260504033552 54 0 0.0 0.0 0.00 0.00 0.00 93 1026.0
20260504033126 54 0 0.0 0.0 0.00 0.00 0.00 93 1026.0
20260504032551 54 0 0.0 0.0 0.00 0.00 0.00 93 1025.9
20260504032049 54 0 0.0 0.0 0.00 0.00 0.00 93 1025.9
20260504031557 54 0 0.0 0.0 0.00 0.00 0.00 93 1025.9
20260504031051 54 0 0.0 0.0 0.00 0.00 0.00 93 1025.9
20260504030549 54 0 0.0 0.0 0.00 0.00 0.00 93 1025.9
20260504030059 54 0 0.0 0.0 0.00 0.00 0.00 93 1025.9
20260504025550 54 0 0.0 0.0 0.00 0.00 0.00 93 1025.8
20260504025053 54 0 0.0 0.0 0.00 0.00 0.00 93 1025.8
20260504024552 54 0 0.0 0.0 0.00 0.00 0.00 93 1025.8
20260504024052 54 0 0.0 0.0 0.00 0.00 0.00 93 1025.6
20260504023552 54 0 0.0 0.0 0.00 0.00 0.00 93 1025.8
20260504023101 54 0 0.0 0.0 0.00 0.00 0.00 93 1025.8
20260504022552 54 0 0.0 0.0 0.00 0.00 0.00 93 1025.8
20260504022048 54 0 0.0 0.0 0.00 0.00 0.00 93 1025.8
20260504021552 54 0 0.0 0.0 0.00 0.00 0.00 93 1025.8
20260504021052 54 0 0.0 0.0 0.00 0.00 0.00 93 1025.8
20260504020552 54 0 0.0 0.0 0.00 0.00 0.00 92 1025.8
20260504020058 54 0 0.0 0.0 0.00 0.00 0.00 92 1025.8
20260504015550 54 0 0.0 0.0 0.00 0.00 0.00 92 1025.8
20260504015049 54 0 0.0 0.0 0.00 0.00 0.00 92 1025.9
20260504014553 54 0 0.0 0.0 0.00 0.00 0.00 92 1025.8
20260504014052 55 0 0.0 0.0 0.00 0.00 0.00 92 1025.8
20260504013552 55 0 0.0 0.0 0.00 0.00 0.00 92 1025.8
20260504013106 55 0 0.0 0.0 0.00 0.00 0.00 92 1025.9
20260504012553 55 0 0.0 0.0 0.00 0.00 0.00 92 1026.0
20260504012053 55 0 0.0 0.0 0.00 0.00 0.00 92 1026.1
20260504011552 55 0 0.0 0.0 0.00 0.00 0.00 92 1026.0
20260504011052 55 0 0.0 0.0 0.00 0.00 0.00 91 1026.1
20260504010552 55 0 0.0 0.0 0.00 0.00 0.00 91 1026.1
20260504010104 55 0 0.0 0.0 0.00 0.00 0.00 91 1026.1
20260504005556 55 0 0.0 0.0 0.00 0.00 0.00 91 1026.0
20260504005052 55 0 0.0 0.0 0.00 0.00 0.00 91 1026.1
20260504004605 55 0 0.0 0.0 0.00 0.00 0.00 91 1026.1
20260504004052 55 0 0.0 0.0 0.00 0.00 0.00 91 1026.1
20260504003554 55 0 0.0 0.0 0.00 0.00 0.00 90 1026.2
20260504003054 56 0 0.0 0.0 0.00 0.00 0.00 90 1026.1
20260504002553 56 0 0.0 0.0 0.00 0.00 0.00 90 1026.2
20260504002053 56 0 0.0 0.0 0.00 0.00 0.00 90 1026.2
20260504001601 56 0 0.0 0.0 0.00 0.00 0.00 90 1026.3
20260504001054 56 0 0.0 0.0 0.00 0.00 0.00 90 1026.3
20260504000552 55 0 0.0 0.0 0.00 0.00 0.00 91 1026.3
20260504000053 56 0 0.0 0.0 0.00 0.00 0.00 91 1026.3
20260503235554 55 0 0.0 0.0 0.00 0.00 0.00 91 1026.4
20260503235049 55 0 0.0 0.0 0.00 0.00 0.00 91 1026.5
20260503234554 55 0 0.0 0.0 0.00 0.00 0.00 91 1026.5
20260503234052 55 0 0.0 0.0 0.00 0.00 0.00 91 1026.6
20260503233552 55 0 0.0 0.0 0.00 0.00 0.00 91 1026.6
20260503233051 55 0 0.0 0.0 0.00 0.00 0.00 91 1026.6
20260503232552 56 0 0.0 0.0 0.00 0.00 0.00 91 1026.7
20260503232052 56 0 0.0 0.0 0.00 0.00 0.00 91 1026.7
20260503231556 56 0 0.0 0.0 0.00 0.00 0.00 91 1026.8
20260503231052 56 0 0.0 0.0 0.00 0.00 0.00 90 1026.9
20260503230552 56 0 0.0 0.0 0.00 0.00 0.00 90 1026.9
20260503230100 56 0 0.0 0.0 0.00 0.00 0.00 90 1026.8
20260503225552 56 0 0.0 0.0 0.00 0.00 0.00 90 1026.9
20260503225052 56 0 0.0 0.0 0.00 0.00 0.00 90 1026.9
20260503224600 56 0 0.0 0.0 0.00 0.00 0.00 90 1026.9
20260503224053 56 0 0.0 0.0 0.00 0.00 0.00 90 1027.0
20260503223553 56 0 0.0 0.0 0.00 0.00 0.00 90 1027.0
20260503223057 56 0 0.0 0.0 0.00 0.00 0.00 90 1027.0
20260503222552 56 0 0.0 0.0 0.00 0.00 0.00 90 1027.1
20260503222052 56 0 0.0 0.0 0.00 0.00 0.00 90 1027.1
20260503221556 56 0 0.0 0.0 0.00 0.00 0.00 90 1027.1
20260503221054 56 0 0.0 0.0 0.00 0.00 0.00 90 1027.1
20260503220552 56 0 0.0 0.0 0.00 0.00 0.00 90 1027.2
20260503220053 56 0 0.0 0.0 0.00 0.00 0.00 90 1027.2
20260503215552 56 0 0.0 0.0 0.00 0.00 0.00 89 1027.4
20260503215052 56 0 0.0 0.0 0.00 0.00 0.00 89 1027.2
20260503214552 56 0 0.0 0.0 0.00 0.00 0.00 89 1027.2
20260503214053 56 0 0.0 0.0 0.00 0.00 0.00 89 1027.3
20260503213553 56 0 0.0 0.0 0.00 0.00 0.00 89 1027.2
20260503213108 56 0 0.0 0.0 0.00 0.00 0.00 89 1027.4
20260503212555 56 0 0.0 0.0 0.00 0.00 0.00 89 1027.5
20260503212053 56 0 0.0 0.0 0.00 0.00 0.00 89 1027.6
20260503211555 56 0 0.0 0.0 0.00 0.00 0.00 89 1027.7
20260503211052 56 0 0.0 0.0 0.00 0.00 0.00 89 1027.6
20260503210555 56 0 0.0 0.0 0.00 0.00 0.00 89 1027.7
20260503210059 56 0 0.0 0.0 0.00 0.00 0.00 89 1027.8
20260503205552 56 0 0.0 0.0 0.00 0.00 0.00 89 1027.8
20260503205052 56 0 0.0 0.0 0.00 0.00 0.00 89 1027.9
20260503204600 56 0 0.0 0.0 0.00 0.00 0.00 89 1027.9
20260503204051 56 0 0.0 0.0 0.00 0.00 0.00 89 1027.9
20260503203554 56 0 0.0 0.0 0.00 0.00 0.00 89 1027.9
20260503203051 56 0 0.0 0.0 0.00 0.00 0.00 88 1028.1
20260503202552 56 0 0.0 0.0 0.00 0.00 0.00 88 1028.0
20260503202052 57 0 0.0 0.0 0.00 0.00 0.00 88 1028.0
20260503201553 57 0 0.0 0.0 0.00 0.00 0.00 88 1028.1
20260503201053 57 0 0.0 0.0 0.00 0.00 0.00 88 1028.1
20260503200553 57 0 0.0 0.0 0.00 0.00 0.00 88 1028.1
20260503200058 57 0 0.0 0.0 0.00 0.00 0.00 87 1028.1
20260503195552 57 0 0.0 0.0 0.00 0.00 0.00 87 1028.1
20260503195049 57 0 0.0 0.0 0.00 0.00 0.00 87 1028.1
20260503194553 57 0 0.0 0.0 0.00 0.00 0.00 87 1028.1
20260503194053 57 0 0.0 0.0 0.00 0.00 0.00 87 1028.0
20260503193553 57 0 0.0 0.0 0.00 0.00 0.00 87 1028.0
20260503193055 57 0 0.0 0.0 0.00 0.00 0.00 86 1028.0
20260503192549 57 0 0.0 0.0 0.00 0.00 0.00 86 1028.0
20260503192052 58 0 0.0 0.0 0.00 0.00 0.00 86 1028.1
20260503191610 58 0 0.0 0.0 0.00 0.00 0.00 86 1028.0
20260503191052 58 0 0.0 0.0 0.00 0.00 0.00 86 1028.1
20260503190552 58 0 0.0 0.0 0.00 0.00 0.00 86 1027.9
20260503190052 58 0 0.0 0.0 0.00 0.00 0.00 85 1028.0
20260503185556 58 0 0.0 0.0 0.00 0.00 0.00 86 1027.9
20260503185053 58 0 0.0 0.0 0.00 0.00 0.00 86 1027.9
20260503184558 58 0 0.0 0.0 0.00 0.00 0.00 85 1027.9
20260503184058 58 0 0.0 0.0 0.00 0.00 0.00 85 1027.8
20260503183552 58 0 0.0 0.0 0.00 0.00 0.00 85 1027.7
20260503183111 58 0 0.0 0.0 0.00 0.00 0.00 84 1027.7
20260503182552 59 0 0.0 0.0 0.00 0.00 0.00 84 1027.7
20260503182053 59 0 0.0 0.0 0.00 0.00 0.00 85 1027.6
20260503181552 59 0 0.0 0.0 0.00 0.00 0.00 84 1027.6
20260503181053 59 0 0.0 0.0 0.00 0.00 0.00 83 1027.6
20260503180549 59 0 0.0 0.0 0.00 0.00 0.00 83 1027.6
20260503180053 59 0 0.0 0.0 0.00 0.00 0.00 83 1027.6
20260503175553 59 0 0.0 0.0 0.00 0.00 0.00 82 1027.6
20260503175052 60 0 0.0 0.0 0.00 0.00 0.00 82 1027.6
20260503174554 60 0 0.0 0.0 0.00 0.00 0.00 82 1027.4
20260503174052 60 0 0.0 0.0 0.00 0.00 0.00 82 1027.4
20260503173553 60 0 0.0 0.0 0.00 0.00 0.00 81 1027.4
20260503173113 60 0 0.0 0.0 0.00 0.00 0.00 81 1027.2
20260503172556 60 0 0.0 0.0 0.00 0.00 0.00 81 1027.2
20260503172053 60 0 0.0 0.0 0.00 0.00 0.00 81 1027.2
20260503171556 60 0 0.0 0.0 0.00 0.00 0.00 81 1027.1
20260503171053 61 0 0.0 0.0 0.00 0.00 0.00 80 1027.1
20260503170553 61 0 0.0 0.0 0.00 0.00 0.00 80 1027.1